Starlink 32915

operational
NORAD ID: 63152 Int'l Des: 2025-043 Owner: SPXS Country: US Constellation: starlink
LEOCIRCULAR

关于 Starlink 32915

正在加载描述...

实时位置

正在加载3D地球...

即将过境

高度历史

Altitude vs Time

uPlot chart will show altitude changes over time

两行轨道根数

1 63152U 25043W 25349.41065992 .00018176 00000-0 66792-3 0 9996
2 63152 43.0029 139.0195 0001239 274.5957 85.4753 15.27604319 44399
Epoch: Dec 15, 2025 • Age: 40 hours

当前状态

高度 482.8 km
速度 7.63 km/s
星下点 21.01°N, 173.52°E
发射日期 Mar 3, 2025
运行时间 0.7 years
类型 internet

技术详情

分类 Payload
质量 730.00 kg
干质量 700.00 kg
总质量 730.00 kg
长度 0.30 m
直径 4.10 m
跨度 29.00 m
形状 Box + pan
制造商 SPXS
平台类型 Starlink V2M
阶段状态 In Orbit
所有者/国家 SPXS/US

大型星座

Loading constellations...